Location: Castle Hill Houses
(40.8186°N, 73.8497°W)
Time: 09:45:43
(UTC+00:00)

Cosmos 1000 Rocket - Pass Details

Date: 26 January 2020
Orbit: 954 x 992 km, 82.9° (Epoch: 18 February)

Event Time Altitude Azimuth Distance (km) Brightness Sun altitude
Rises 00:03:38 0° 353° (N) 3,657 7.5 -22.6°
Reaches altitude 10° 00:06:09 10° 355° (N) 2,712 6.8 -23.1°
Maximum altitude 00:12:22 80° 82° (E) 990 4.3 -24.3°
Drops below altitude 10° 00:18:37 10° 170° (S) 2,721 6.8 -25.4°
Sets 00:21:08 0° 172° (S) 3,670 7.5 -25.9°
